Content
SEND FEEDBACK

Daily
Averages
Monthly
Summary
United States of America

BOSTON, MASSACHUSETTS


Home > North America > United States > Massachusetts
Elevation: 4 feet     Latitude: 42 22N     Longitude: 071 02W

WEATHER
 
SELECT A DAY
Number of Records: 202,493;   Date Range: 1/1/95 - 7/23/14
 
SHARE

PRINT THIS DATA

[ ← Previous Day ]
WEATHER ALMANAC - SEPTEMBER 8, 2013
[ Next Day → ]
[ °C ]   °F
Weather ElementAverageHighLow
Temperature67.7 °F77 °F (11:54 am)57.9 °F (11:54 pm)
Dewpoint48.6 °F57.9 °F (9:54 am)37 °F (5:54 pm)
Humidity52.4 %73 % (3:54 am)30 % (3:54 pm)
Barometer29.86 in30.09 in (11:54 pm)29.75 in (9:54 am)
Wind Speed13.4 mph21.9 mph (1:54 pm)
Wind Gust33.4 mph (4:54 pm)
Weather ElementAverage
Visibility10 mi
Wind DirectionWNW (300.9 °)

Weather ElementTotal
Precipitation---
Cooling Degree Days2.5 (Base 65)
Growing Degree Days17.5 (Base 50)
Averaged from 23 records on September 8, 2013
WEATHER CONDITIONS BREAKOUT
WIND DIRECTION BREAKOUT
WEATHER BY HOUR - SEPTEMBER 8, 2013
[ °C ]   °F
Local TimeTemperatureDewpointHumidityBarometerVisibilityWind DirectionWind SpeedGust SpeedPrecipitationEventsConditions
1:54 AM66.9 °F54.0 °F63 %29.83 in10.0 miWSW (250°)10.4 mphOvercast
2:54 AM66.9 °F55.0 °F66 %29.82 in10.0 miWest (260°)9.2 mph0.00 inOvercast
3:54 AM64.9 °F55.9 °F73 %29.80 in10.0 miWSW (250°)6.9 mph0.00 inOvercast
4:54 AM64.9 °F55.9 °F73 %29.78 in10.0 miWSW (240°)8.1 mphMostly Cloudy
5:54 AM64.9 °F55.9 °F73 %29.76 in10.0 miSW (220°)12.7 mphMostly Cloudy
6:54 AM64.9 °F55.9 °F73 %29.77 in10.0 miWSW (250°)11.5 mphMostly Cloudy
7:54 AM66.0 °F55.0 °F68 %29.76 in10.0 miWest (260°)12.7 mphMostly Cloudy
8:54 AM69.1 °F55.9 °F63 %29.76 in10.0 miWNW (290°)12.7 mphScattered Clouds
9:54 AM73.0 °F57.9 °F59 %29.75 in10.0 miWNW (300°)11.5 mph18.4 mphPartly Cloudy
10:54 AM75.0 °F57.9 °F55 %29.75 in10.0 miWNW (300°)16.1 mph23.0 mphMostly Cloudy
11:54 AM77.0 °F57.9 °F52 %29.76 in10.0 miWNW (290°)15.0 mph20.7 mphScattered Clouds
12:54 PM75.0 °F57.0 °F53 %29.76 in10.0 miNorth (350°)15.0 mph21.9 mphMostly Cloudy
1:54 PM75.0 °F53.1 °F46 %29.79 in10.0 miNNW (330°)21.9 mph28.8 mphPartly Cloudy
2:54 PM75.0 °F45.0 °F34 %29.82 in10.0 miNNW (330°)19.6 mph28.8 mphMostly Cloudy
3:54 PM73.9 °F41.0 °F30 %29.84 in10.0 miNNW (340°)17.3 mph31.1 mphMostly Cloudy
4:54 PM71.1 °F37.9 °F30 %29.87 in10.0 miNNW (330°)19.6 mph33.4 mphScattered Clouds
5:54 PM68.0 °F37.0 °F32 %29.91 in10.0 miNNW (340°)21.9 mph31.1 mphScattered Clouds
6:54 PM64.9 °F39.0 °F39 %29.93 in10.0 miNNW (330°)19.6 mph27.6 mphClear
7:54 PM62.1 °F39.0 °F43 %29.98 in10.0 miNorth (350°)9.2 mphClear
8:54 PM61.0 °F37.9 °F42 %30.03 in10.0 miNNW (330°)9.2 mph17.3 mphClear
9:54 PM60.1 °F39.0 °F46 %30.06 in10.0 miNNW (330°)9.2 mphClear
10:54 PM59.0 °F37.9 °F46 %30.08 in10.0 miNNW (330°)9.2 mphClear
11:54 PM57.9 °F37.9 °F47 %30.09 in10.0 miNW (320°)10.4 mphClear
Hourly data recorded from KBOS, located miles away from Boston, Massachusetts







STORIES FROM OUR PARTNERS